sat.trackr.live / text

‹ back to catalog

STARLINK-37340

NORAD 68708 · 2026-081K

PAYLOAD ACTIVE UNKNOWN

§ Identity

Operator
Country
US
Launch date
2026-04-14
Launch site
AFETR
Launch vehicle
Mass (kg)
RCS (m²)

Purposes: comms

External: N2YO · Heavens-Above · Gunter

§ Orbital elements

Epoch: 2026-05-25T05:01:19.789248Z

Period
93.18 min
Inclination
53.1600°
Eccentricity
0.0001732
Mean motion
15.45421693 rev/d
Perigee alt
429.0 km
Apogee alt
431.3 km
Semi-major
6,808.3 km
B*
-6.5528e-3
RAAN
39.0016°
Arg perigee
35.7313°
Mean anomaly
324.3810°
Rev number
645

§ Raw data

STARLINK-373401 68708U 26081K   26145.20925682 -.00306599  00000+0 -65528-2 0  99992 68708  53.1600  39.0016 0001732  35.7313 324.3810 15.45421693  6456

JSON: /api/v1/satellites/68708 · /tle

For live sub-satellite position, see the globe view (requires WebGL).

§ Visibility from observer

Set your observer location to see the next 7 days of passes ≥ 10°. The values pass through the URL so the page stays shareable.

No JS? Fill the form by hand. The geolocation button needs JavaScript.